Regional Weather Roundup
Issued by NWS

Home | Current Version | Previous Version | Text Only | Print | Product List | Glossary Off
Versions: 1 2 3 4 5 6 7 8 9 10 11 12 13 14 15 16 17 18 19 20 21 22 23 24 25 26 27

000
ASUS45 KCYS 162110
RWRWY

WYOMING REGIONAL WEATHER ROUNDUP
NATIONAL WEATHER SERVICE CHEYENNE WY
300 PM MDT WED AUG 16 2017

NOTE:  "FAIR" INDICATES FEW OR NO CLOUDS BELOW 12,000 FEET
WITH NO SIGNIFICANT WEATHER AND/OR OBSTRUCTIONS TO VISIBILITY.

WYZ001-162200-
YELLOWSTONE NATIONAL PARK

CITY           SKY/WX    TMP DP  RH WIND       PRES   REMARKS
LK YELLOWSTONE   N/A     54  44  69 CALM      30.27F
W YELLOWSTONE  NOT AVBL

$$
WYZ002>013-054>058-071-098>099-162200-
NORTHERN WYOMING

CITY           SKY/WX    TMP DP  RH WIND       PRES   REMARKS
JACKSON        FAIR      75  36  24 SW12G18   30.17F
CODY           FAIR      78  37  22 W3        30.04F
GREYBULL       FAIR      84  35  17 E3        29.97F
WORLAND        FAIR      83  22  10 CALM      30.00F
SHERIDAN       FAIR      84  34  16 VRB5      29.98F
BUFFALO        PTSUNNY   81  33  17 S15G22    30.06F
GILLETTE       FAIR      80  29  15 SW9       30.02F
HULETT         FAIR      77  43  29 SE6       30.05F
NEWCASTLE      FAIR      77  34  20 W7        30.04S

$$
WYZ014>020-022>026-101>103-162200-
CENTRAL WYOMING

CITY           SKY/WX    TMP DP  RH WIND       PRES   REMARKS
BIG PINEY      LGT RAIN  66  35  31 MISG      30.22F
PINEDALE       FAIR      70  34  26 W12G20    30.22F
DUBOIS         FAIR      68  30  24 W14G23    30.19S
LANDER           N/A    N/A N/A N/A MISG      30.08F
RIVERTON       FAIR      77  33  20 VRB6      30.10F
CASPER         FAIR      75  34  22 W10       30.09F
DOUGLAS        FAIR      76  39  26 VRB7      30.09F

$$
WYZ021-027>030-104>119-162200-
SOUTHERN WYOMING

CITY           SKY/WX    TMP DP  RH WIND       PRES   REMARKS
EVANSTON       CLOUDY    71  35  26 N7        30.23S
KEMMERER         N/A    N/A N/A N/A W5        30.24F
FORT BRIDGER   FAIR      75  28  17 SW7       30.24F
ROCK SPRINGS   PTSUNNY   74  37  26 SW9       30.20F
RAWLINS        FAIR      71  34  25 W8        30.20F
SARATOGA       FAIR      66  37  34 N8        30.23S
LARAMIE        FAIR      69  33  26 N18G26    30.20F
CHEYENNE       FAIR      70  37  29 N12G21    30.15F
TORRINGTON     FAIR      76  40  27 N13       30.05S
PINE BLUFFS    FAIR      72  39  30 N17       30.11F

$$




USA.gov is the U.S. government's official web portal to all federal, state and local government web resources and services.